TimeCDT,TemperatureF,Dew PointF,Humidity,Sea Level PressureIn,VisibilityMPH,Wind Direction,Wind SpeedMPH,Gust SpeedMPH,PrecipitationIn,Events,Conditions,WindDirDegrees,DateUTC
12:15 AM,84.2,71.6,66,29.90,10.0,SSW,6.9,-,N/A,,Scattered Clouds,200,2013-07-10 05:15:00
12:35 AM,84.2,71.6,66,29.90,10.0,SSW,6.9,-,N/A,,Scattered Clouds,210,2013-07-10 05:35:00
12:55 AM,84.2,71.6,66,29.90,10.0,SSW,5.8,-,N/A,,Mostly Cloudy,210,2013-07-10 05:55:00
1:15 AM,84.2,71.6,66,29.90,10.0,SSW,5.8,-,N/A,,Overcast,210,2013-07-10 06:15:00
1:35 AM,82.4,69.8,66,29.90,10.0,SSW,5.8,-,N/A,,Mostly Cloudy,210,2013-07-10 06:35:00
1:55 AM,82.4,69.8,66,29.89,10.0,SSW,5.8,-,N/A,,Scattered Clouds,210,2013-07-10 06:55:00
2:15 AM,82.4,69.8,66,29.88,10.0,SSW,6.9,-,N/A,,Scattered Clouds,210,2013-07-10 07:15:00
2:55 AM,82.4,69.8,66,29.88,10.0,SSW,8.1,-,N/A,,Clear,210,2013-07-10 07:55:00
3:15 AM,82.4,69.8,66,29.87,10.0,SW,3.5,-,N/A,,Clear,230,2013-07-10 08:15:00
3:35 AM,80.6,69.8,70,29.86,10.0,SW,3.5,-,N/A,,Scattered Clouds,220,2013-07-10 08:35:00
3:55 AM,80.6,69.8,70,29.86,10.0,Calm,Calm,-,N/A,,Clear,0,2013-07-10 08:55:00
4:15 AM,78.8,69.8,74,29.87,10.0,SW,4.6,-,N/A,,Scattered Clouds,220,2013-07-10 09:15:00
4:35 AM,78.8,69.8,74,29.86,10.0,Calm,Calm,-,N/A,,Scattered Clouds,0,2013-07-10 09:35:00
4:55 AM,80.6,69.8,70,29.86,10.0,Calm,Calm,-,N/A,,Clear,0,2013-07-10 09:55:00
5:15 AM,78.8,69.8,74,29.86,10.0,Calm,Calm,-,N/A,,Scattered Clouds,0,2013-07-10 10:15:00
5:35 AM,78.8,69.8,74,29.87,10.0,NNW,3.5,-,N/A,,Mostly Cloudy,340,2013-07-10 10:35:00
5:55 AM,78.8,69.8,74,29.88,4.0,North,5.8,-,N/A,,Haze,350,2013-07-10 10:55:00
6:15 AM,80.6,69.8,70,29.89,10.0,North,5.8,-,N/A,,Clear,360,2013-07-10 11:15:00
6:35 AM,80.6,69.8,70,29.90,10.0,North,8.1,16.1,N/A,,Scattered Clouds,10,2013-07-10 11:35:00
6:55 AM,80.6,68.0,65,29.92,10.0,North,6.9,-,N/A,,Scattered Clouds,360,2013-07-10 11:55:00
7:15 AM,80.6,68.0,65,29.92,10.0,North,8.1,-,N/A,,Clear,360,2013-07-10 12:15:00
7:35 AM,80.6,68.0,65,29.93,10.0,North,10.4,-,N/A,,Scattered Clouds,350,2013-07-10 12:35:00
7:55 AM,80.6,66.2,61,29.93,10.0,NNE,10.4,-,N/A,,Mostly Cloudy,20,2013-07-10 12:55:00
8:15 AM,80.6,66.2,61,29.93,10.0,North,15.0,20.7,N/A,,Mostly Cloudy,360,2013-07-10 13:15:00
8:35 AM,82.4,66.2,58,29.94,10.0,North,13.8,20.7,N/A,,Scattered Clouds,10,2013-07-10 13:35:00
8:55 AM,82.4,66.2,58,29.96,10.0,NNE,6.9,16.1,N/A,,Scattered Clouds,20,2013-07-10 13:55:00
9:15 AM,82.4,64.4,54,29.97,10.0,North,10.4,18.4,N/A,,Scattered Clouds,360,2013-07-10 14:15:00
9:35 AM,82.4,62.6,51,29.98,10.0,North,6.9,-,N/A,,Mostly Cloudy,360,2013-07-10 14:35:00
9:55 AM,82.4,62.6,51,29.99,10.0,North,12.7,16.1,N/A,,Scattered Clouds,360,2013-07-10 14:55:00
10:15 AM,84.2,62.6,48,30.00,10.0,North,10.4,16.1,N/A,,Scattered Clouds,360,2013-07-10 15:15:00
10:35 AM,84.2,62.6,48,30.00,10.0,North,8.1,-,N/A,,Clear,360,2013-07-10 15:35:00
10:55 AM,84.2,62.6,48,30.01,10.0,North,9.2,-,N/A,,Clear,10,2013-07-10 15:55:00
11:15 AM,86.0,62.6,45,30.01,10.0,NNE,5.8,-,N/A,,Clear,30,2013-07-10 16:15:00
11:35 AM,86.0,62.6,45,30.01,10.0,North,9.2,-,N/A,,Clear,360,2013-07-10 16:35:00
11:55 AM,86.0,62.6,45,30.01,10.0,North,6.9,-,N/A,,Clear,10,2013-07-10 16:55:00
12:15 PM,86.0,62.6,45,30.00,10.0,NNE,9.2,-,N/A,,Clear,20,2013-07-10 17:15:00
12:35 PM,86.0,64.4,48,30.00,10.0,North,5.8,-,N/A,,Clear,350,2013-07-10 17:35:00
12:55 PM,87.8,62.6,43,30.00,10.0,NNW,6.9,-,N/A,,Clear,330,2013-07-10 17:55:00
1:15 PM,87.8,62.6,43,30.00,10.0,NNW,9.2,-,N/A,,Clear,340,2013-07-10 18:15:00
1:35 PM,87.8,64.4,46,30.00,10.0,NW,6.9,-,N/A,,Clear,320,2013-07-10 18:35:00
1:55 PM,87.8,62.6,43,30.00,10.0,NW,8.1,-,N/A,,Scattered Clouds,310,2013-07-10 18:55:00
2:15 PM,87.8,60.8,40,29.99,10.0,NW,9.2,-,N/A,,Clear,320,2013-07-10 19:15:00
2:35 PM,87.8,62.6,43,29.99,10.0,WNW,8.1,-,N/A,,Clear,300,2013-07-10 19:35:00
2:55 PM,87.8,62.6,43,29.99,10.0,NW,10.4,-,N/A,,Clear,320,2013-07-10 19:55:00
3:15 PM,87.8,62.6,43,29.99,10.0,NNW,8.1,-,N/A,,Clear,340,2013-07-10 20:15:00
3:35 PM,87.8,60.8,40,29.98,10.0,NW,12.7,-,N/A,,Clear,320,2013-07-10 20:35:00
3:55 PM,87.8,57.2,35,29.98,10.0,NNW,8.1,-,N/A,,Clear,330,2013-07-10 20:55:00
4:15 PM,86.0,59.0,40,29.98,10.0,NW,8.1,-,N/A,,Clear,320,2013-07-10 21:15:00
4:35 PM,86.0,57.2,37,29.98,10.0,North,11.5,16.1,N/A,,Clear,360,2013-07-10 21:35:00
4:55 PM,86.0,60.8,43,29.98,10.0,North,8.1,18.4,N/A,,Clear,350,2013-07-10 21:55:00
5:15 PM,84.2,60.8,45,29.97,10.0,NNW,11.5,18.4,N/A,,Clear,330,2013-07-10 22:15:00
5:35 PM,84.2,60.8,45,29.97,10.0,North,10.4,17.3,N/A,,Clear,350,2013-07-10 22:35:00
5:55 PM,84.2,59.0,42,29.97,10.0,NNW,11.5,16.1,N/A,,Clear,340,2013-07-10 22:55:00
6:15 PM,84.2,57.2,40,29.97,10.0,NNW,8.1,-,N/A,,Clear,330,2013-07-10 23:15:00
6:35 PM,84.2,59.0,42,29.97,10.0,NNW,8.1,16.1,N/A,,Clear,330,2013-07-10 23:35:00
6:55 PM,82.4,57.2,42,29.97,10.0,NNW,8.1,-,N/A,,Clear,340,2013-07-10 23:55:00
7:15 PM,82.4,57.2,42,29.97,10.0,NNW,5.8,-,N/A,,Clear,330,2013-07-11 00:15:00
7:35 PM,80.6,57.2,45,29.97,10.0,NNW,8.1,-,N/A,,Clear,340,2013-07-11 00:35:00
7:55 PM,80.6,55.4,42,29.98,10.0,North,8.1,-,N/A,,Clear,350,2013-07-11 00:55:00
8:15 PM,78.8,55.4,44,29.98,10.0,North,3.5,-,N/A,,Clear,350,2013-07-11 01:15:00
8:35 PM,77.0,55.4,47,29.99,10.0,Calm,Calm,-,N/A,,Clear,0,2013-07-11 01:35:00
8:55 PM,75.2,55.4,50,30.00,10.0,Calm,Calm,-,N/A,,Clear,0,2013-07-11 01:55:00
9:15 PM,73.4,57.2,57,30.01,10.0,North,4.6,-,N/A,,Clear,350,2013-07-11 02:15:00
9:35 PM,71.6,57.2,60,30.01,10.0,North,5.8,-,N/A,,Clear,10,2013-07-11 02:35:00
9:55 PM,73.4,57.2,57,30.02,10.0,North,3.5,-,N/A,,Clear,360,2013-07-11 02:55:00
10:15 PM,71.6,57.2,60,30.03,10.0,North,3.5,-,N/A,,Clear,10,2013-07-11 03:15:00
10:35 PM,71.6,57.2,60,30.03,10.0,North,3.5,-,N/A,,Clear,360,2013-07-11 03:35:00
10:55 PM,71.6,57.2,60,30.03,10.0,Calm,Calm,-,N/A,,Clear,0,2013-07-11 03:55:00
11:15 PM,71.6,57.2,60,30.03,10.0,Calm,Calm,-,N/A,,Clear,0,2013-07-11 04:15:00
11:35 PM,69.8,57.2,64,30.04,10.0,Calm,Calm,-,N/A,,Clear,0,2013-07-11 04:35:00
11:55 PM,69.8,57.2,64,30.04,10.0,Calm,Calm,-,N/A,,Clear,0,2013-07-11 04:55:00